Hourly Weather Bolshoe Zhokovo

Today, 20 September, Monday

Time Temperature Precipitation Wind Pressure Humidity
00:00 +3°C° 3 mm 9 mps 744 mmHg 94%
01:00 +3°C° 1.7 mm 9 mps 744 mmHg 94%
02:00 +4°C° 1.7 mm 8 mps 744 mmHg 94%
03:00 +4°C° 1.7 mm 8 mps 744 mmHg 94%
04:00 +4°C° 0.7 mm 8 mps 744 mmHg 94%
05:00 +4°C° 0.7 mm 8 mps 744 mmHg 94%
06:00 +4°C° 0.7 mm 8 mps 744 mmHg 94%
07:00 +4°C° 0.3 mm 8 mps 744 mmHg 93%
08:00 +4°C° 0.3 mm 8 mps 744 mmHg 93%
09:00 +4°C° 0.3 mm 8 mps 744 mmHg 92%
10:00 +4°C° 0.2 mm 8 mps 744 mmHg 92%
11:00 +4°C° 0.2 mm 8 mps 744 mmHg 92%
12:00 +4°C° 0.2 mm 8 mps 744 mmHg 92%
13:00 +4°C° 0.1 mm 8 mps 744 mmHg 92%
14:00 +4°C° 0.1 mm 8 mps 744 mmHg 92%
15:00 +4°C° 0.1 mm 8 mps 744 mmHg 92%
16:00 +4°C° 0 mm 8 mps 744 mmHg 92%
17:00 +4°C° 0 mm 8 mps 744 mmHg 92%
18:00 +4°C° 0 mm 8 mps 744 mmHg 92%
19:00 +4°C° 0.4 mm 8 mps 744 mmHg 92%
20:00 +4°C° 0.4 mm 8 mps 744 mmHg 93%
21:00 +4°C° 0.4 mm 8 mps 744 mmHg 93%
22:00 +4°C° 1.2 mm 7 mps 744 mmHg 94%
23:00 +4°C° 1.2 mm 7 mps 744 mmHg 94%

Tomorrow, 21 September, Tuesday

Time Temperature Precipitation Wind Pressure Humidity
00:00 +4°C° 1.2 mm 7 mps 744 mmHg 94%
01:00 +4°C° 0.5 mm 7 mps 743 mmHg 94%
02:00 +4°C° 0.5 mm 7 mps 743 mmHg 95%
03:00 +4°C° 0.5 mm 7 mps 743 mmHg 95%
04:00 +4°C° 0.5 mm 7 mps 743 mmHg 95%
05:00 +4°C° 0.5 mm 6 mps 742 mmHg 95%
06:00 +4°C° 0.5 mm 6 mps 742 mmHg 96%
07:00 +5°C° 0.6 mm 6 mps 742 mmHg 96%
08:00 +6°C° 0.6 mm 5 mps 743 mmHg 96%
09:00 +6°C° 0.6 mm 5 mps 743 mmHg 96%
10:00 +6°C° 0.2 mm 5 mps 743 mmHg 95%
11:00 +7°C° 0.2 mm 4 mps 743 mmHg 93%
12:00 +8°C° 0.2 mm 4 mps 743 mmHg 91%
13:00 +8°C° 0.1 mm 4 mps 743 mmHg 88%
14:00 +10°C° 0.1 mm 4 mps 743 mmHg 86%
15:00 +10°C° 0.1 mm 4 mps 742 mmHg 83%
16:00 +10°C° 0.2 mm 4 mps 742 mmHg 86%
17:00 +9°C° 0.2 mm 3 mps 742 mmHg 89%
18:00 +9°C° 0.2 mm 3 mps 742 mmHg 92%
19:00 +9°C° 0.2 mm 3 mps 742 mmHg 94%
20:00 +8°C° 0.2 mm 3 mps 742 mmHg 96%
21:00 +8°C° 0.2 mm 3 mps 742 mmHg 97%
22:00 +8°C° 0.2 mm 3 mps 742 mmHg 97%
23:00 +8°C° 0.2 mm 3 mps 742 mmHg 97%

Day after tomorrow, 22 September, Wednesday

Time Temperature Precipitation Wind Pressure Humidity
00:00 +8°C° 0.2 mm 3 mps 742 mmHg 98%
01:00 +7°C° 0.3 mm 3 mps 742 mmHg 98%
02:00 +7°C° 0.3 mm 3 mps 741 mmHg 97%
03:00 +7°C° 0.3 mm 3 mps 741 mmHg 97%
04:00 +7°C° 0.1 mm 3 mps 741 mmHg 97%
05:00 +7°C° 0.1 mm 2 mps 741 mmHg 97%
06:00 +7°C° 0.1 mm 2 mps 741 mmHg 97%
07:00 +7°C° 0 mm 2 mps 741 mmHg 97%
08:00 +7°C° 0 mm 2 mps 741 mmHg 96%
09:00 +7°C° 0 mm 2 mps 741 mmHg 96%
10:00 +8°C° 0 mm 2 mps 741 mmHg 93%
11:00 +8°C° 0 mm 2 mps 741 mmHg 90%
12:00 +9°C° 0 mm 2 mps 741 mmHg 87%
13:00 +9°C° 0 mm 2 mps 741 mmHg 84%
14:00 +10°C° 0 mm 2 mps 742 mmHg 82%
15:00 +10°C° 0 mm 2 mps 742 mmHg 80%
16:00 +9°C° 0.1 mm 2 mps 742 mmHg 84%
17:00 +9°C° 0.1 mm 2 mps 742 mmHg 87%
18:00 +9°C° 0.1 mm 3 mps 742 mmHg 91%
19:00 +8°C° 0.3 mm 2 mps 742 mmHg 92%
20:00 +8°C° 0.3 mm 2 mps 742 mmHg 94%
21:00 +8°C° 0.3 mm 2 mps 742 mmHg 96%
22:00 +8°C° 0.5 mm 2 mps 742 mmHg 96%
23:00 +8°C° 0.5 mm 2 mps 742 mmHg 96%

23 September, Thursday

Time Temperature Precipitation Wind Pressure Humidity
00:00 +8°C° 0.5 mm 2 mps 742 mmHg 96%
01:00 +8°C° 0.2 mm 2 mps 742 mmHg 95%
02:00 +8°C° 0.2 mm 2 mps 743 mmHg 94%
03:00 +7°C° 0.2 mm 2 mps 743 mmHg 93%
04:00 +7°C° 0 mm 2 mps 743 mmHg 91%
05:00 +7°C° 0 mm 2 mps 743 mmHg 90%
06:00 +7°C° 0 mm 2 mps 743 mmHg 88%
07:00 +7°C° 0 mm 2 mps 743 mmHg 87%
08:00 +8°C° 0 mm 3 mps 743 mmHg 86%
09:00 +8°C° 0 mm 3 mps 743 mmHg 85%
10:00 +8°C° 0 mm 3 mps 743 mmHg 81%
11:00 +8°C° 0 mm 4 mps 743 mmHg 77%
12:00 +10°C° 0 mm 4 mps 743 mmHg 73%
13:00 +10°C° 0.1 mm 4 mps 743 mmHg 73%
14:00 +10°C° 0.1 mm 4 mps 743 mmHg 73%
15:00 +10°C° 0.1 mm 4 mps 743 mmHg 73%
16:00 +8°C° 0.1 mm 4 mps 743 mmHg 76%
17:00 +9°C° 0.1 mm 3 mps 743 mmHg 79%
18:00 +8°C° 0.1 mm 3 mps 742 mmHg 82%
19:00 +8°C° 0 mm 3 mps 742 mmHg 84%
20:00 +7°C° 0 mm 3 mps 742 mmHg 86%
21:00 +7°C° 0 mm 3 mps 742 mmHg 87%
22:00 +7°C° 0 mm 3 mps 742 mmHg 88%
23:00 +5°C° 0 mm 3 mps 742 mmHg 88%

24 September, Friday

Time Temperature Precipitation Wind Pressure Humidity
00:00 +5°C° 0 mm 3 mps 741 mmHg 89%
01:00 +5°C° 0 mm 3 mps 741 mmHg 90%
02:00 +4°C° 0 mm 3 mps 741 mmHg 90%
03:00 +4°C° 0 mm 3 mps 741 mmHg 91%
04:00 +4°C° 0 mm 3 mps 740 mmHg 91%
05:00 +4°C° 0 mm 4 mps 740 mmHg 91%
06:00 +4°C° 0 mm 4 mps 740 mmHg 92%
07:00 +5°C° 0 mm 4 mps 740 mmHg 87%
08:00 +6°C° 0 mm 5 mps 740 mmHg 83%
09:00 +7°C° 0 mm 5 mps 740 mmHg 79%
10:00 +7°C° 0 mm 5 mps 739 mmHg 73%
11:00 +8°C° 0 mm 6 mps 739 mmHg 67%
12:00 +9°C° 0 mm 6 mps 738 mmHg 61%
13:00 +9°C° 0 mm 6 mps 738 mmHg 63%
14:00 +9°C° 0 mm 5 mps 738 mmHg 64%
15:00 +8°C° 0 mm 5 mps 737 mmHg 66%
16:00 +8°C° 0 mm 5 mps 737 mmHg 66%
17:00 +8°C° 0 mm 6 mps 736 mmHg 66%
18:00 +8°C° 0 mm 6 mps 736 mmHg 66%
19:00 +7°C° 0 mm 6 mps 736 mmHg 68%
20:00 +7°C° 0 mm 6 mps 735 mmHg 70%
21:00 +7°C° 0 mm 6 mps 735 mmHg 72%
22:00 +7°C° 0.3 mm 6 mps 734 mmHg 78%
23:00 +5°C° 0.3 mm 6 mps 733 mmHg 84%

25 September, Saturday

Time Temperature Precipitation Wind Pressure Humidity
00:00 +5°C° 0.3 mm 6 mps 733 mmHg 90%
01:00 +5°C° 0.2 mm 6 mps 732 mmHg 91%
02:00 +6°C° 0.2 mm 5 mps 732 mmHg 92%
03:00 +6°C° 0.2 mm 5 mps 731 mmHg 94%
04:00 +7°C° 0.4 mm 5 mps 731 mmHg 94%
05:00 +7°C° 0.4 mm 4 mps 731 mmHg 94%
06:00 +7°C° 0.4 mm 4 mps 732 mmHg 94%
07:00 +7°C° 0 mm 5 mps 732 mmHg 91%
08:00 +8°C° 0 mm 5 mps 732 mmHg 89%
09:00 +8°C° 0 mm 6 mps 733 mmHg 86%
10:00 +8°C° 0 mm 6 mps 733 mmHg 85%
11:00 +9°C° 0 mm 5 mps 733 mmHg 83%
12:00 +9°C° 0 mm 5 mps 734 mmHg 81%
13:00 +9°C° 0.1 mm 5 mps 734 mmHg 81%
14:00 +9°C° 0.1 mm 5 mps 734 mmHg 81%
15:00 +10°C° 0.1 mm 4 mps 735 mmHg 80%
16:00 +10°C° 0 mm 4 mps 735 mmHg 80%
17:00 +10°C° 0 mm 3 mps 735 mmHg 80%
18:00 +9°C° 0 mm 3 mps 736 mmHg 81%
19:00 +9°C° 0 mm 3 mps 736 mmHg 81%
20:00 +9°C° 0 mm 3 mps 737 mmHg 82%
21:00 +8°C° 0 mm 3 mps 737 mmHg 82%
22:00 +8°C° 0 mm 3 mps 737 mmHg 84%
23:00 +7°C° 0 mm 3 mps 738 mmHg 86%
Show more

We Need Your Consent

Meteoprog and our Service Providers may store and access personal data such as cookies, device identifiers or other similar technologies on your device and process such data to personalise content and ads, as well as provide social media features and to analyse the traffic.

  • Store and/or access information on your device

    Cookies, device identifiers or other information can be stored or accessed on your device for the purposes indicated above.

  • Personalised ads and content, ad and content measurement, audience insights, and products development

    Ads and content can be personalised based on a profile. More data can be added to better personalise ads and content. Ad and content performance can be measured. Insights about the audience who saw the ads and content can be derived. Such data can be used to develop or improve user’s experience, systems and software.

By clicking ‘I Agree’ you will allow the use of indicated cookies, device identifiers, web beacons or other similar technologies. Your settings can be changed in the browser on your device.

For certain purposes, legitimate interests may be relied on, rather than consent. You can read more about this in our Privacy and Cookie Policy.